Location: Cosy Dell
(34.2789°N, 117.4537°W)
Time: 12:29:00
(UTC+00:00)

OAO 2 Rocket - Pass Details

Date: 14 July 2020
Orbit: 676 x 746 km, 35.0° (Epoch: 08 August)

Event Time Altitude Azimuth Distance (km) Brightness Sun altitude
Rises 05:11:58 0° 279° (W) 3,142 7.4 -21.9°
Reaches altitude 10° 05:14:37 10° 268° (W) 2,228 6.4 -22.3°
Maximum altitude 05:19:11 31° 208° (SSW) 1,286 4.4 -22.9°
Enters shadow 05:19:14 31° 207° (SSW) 1,286 4.4 -22.9°
